Location: Beetenbrück
(52.8113°N, 9.5946°E)
Time: 21:48:15
(UTC+00:00)

Cosmos 1140 Rocket - Pass Details

Date: 14 April 2026
Orbit: 740 x 761 km, 74.1° (Epoch: 12 May)

Event Time Altitude Azimuth Distance (km) Brightness Sun altitude
Rises 21:36:01 0° 334° (NNW) 3,215 8.2 -23.6°
Reaches altitude 10° 21:38:25 10° 337° (NNW) 2,283 7.0 -23.7°
Maximum altitude 21:43:35 73° 62° (ENE) 785 3.4 -24.1°
Enters shadow 21:44:11 65° 112° (ESE) 823 3.4 -24.1°
